Location: ????????
(60.5616°N, 46.8254°E)
Time: 05:15:42
(UTC+00:00)

SeaSat 1 - Pass Details

Date: 18 February 2020
Orbit: 744 x 748 km, 108.0° (Epoch: 30 March)

Event Time Altitude Azimuth Distance (km) Brightness Sun altitude
Exits shadow 18:15:17 27° 8° (N) 1,433 4.1 -31.9°
Drops below altitude 10° 18:18:58 10° 321° (NW) 2,279 5.8 -32.3°
Sets 18:21:31 0° 309° (NW) 3,205 6.8 -32.5°
